Location: Dötzum
(52.0808°N, 9.8063°E)
Time: 12:53:37
(UTC+00:00)

Cosmos 371 Rocket - Visible Passes

Search period start: 26 September 2022 00:00
Search period end: 06 October 2022 00:00
Orbit: 682 x 699 km, 74.0° (Epoch: 25 September)

Date Brightness Start Highest point End Pass type
(mag) Time Alt. Az. Time Alt. Az. Time Alt. Az.
26 Sep 4.9 01:18:03 30° N 01:18:03 30° N 01:20:43 10° NNE visible
26 Sep 5.4 02:56:42 13° NW 02:57:27 14° NW 02:59:55 10° N visible
27 Sep 5.7 00:19:02 20° NNE 00:19:02 20° NNE 00:20:32 10° NNE visible
27 Sep 5.1 01:57:41 23° NNW 01:57:41 23° NNW 02:00:34 10° N visible
28 Sep 5.3 00:58:39 24° N 00:58:39 24° N 01:00:45 10° NNE visible
28 Sep 5.5 02:37:18 13° NW 02:37:33 13° NW 02:39:52 10° N visible
28 Sep 6.0 23:59:37 16° NNE 23:59:37 16° NNE 00:00:35 10° NNE visible
29 Sep 5.4 01:38:16 20° NNW 01:38:16 20° NNW 01:40:34 10° N visible
30 Sep 5.7 00:39:13 20° N 00:39:13 20° N 00:40:46 10° NNE visible
30 Sep 5.7 02:17:51 13° NNW 02:17:51 13° NNW 02:19:48 10° N visible
30 Sep 6.2 23:40:09 13° NNE 23:40:09 13° NNE 23:40:38 10° NNE visible
01 Oct 5.6 01:18:48 18° NNW 01:18:48 18° NNW 01:20:34 10° N visible
02 Oct 6.0 00:19:43 16° NNE 00:19:43 16° NNE 00:20:47 10° NNE visible
02 Oct 5.8 01:58:22 12° NNW 01:58:22 12° NNW 01:59:44 10° N visible
02 Oct 6.4 23:20:39 10° NNE 23:20:39 10° NNE 23:20:40 10° NNE visible
03 Oct 5.9 00:59:17 15° N 00:59:17 15° N 01:00:34 10° N visible
04 Oct 6.2 00:00:12 13° NNE 00:00:12 13° NNE 00:00:48 10° NNE visible
04 Oct 6.0 01:38:50 11° NNW 01:38:50 11° NNW 01:39:38 10° NNW visible
05 Oct 6.1 00:39:45 13° N 00:39:45 13° N 00:40:34 10° N visible
05 Oct 6.4 23:40:39 11° NNE 23:40:39 11° NNE 23:40:49 10° NNE visible
